Time,TemperatureF,DewpointF,PressureIn,WindDirection,WindDirectionDegrees,WindSpeedMPH,WindSpeedGustMPH,Humidity,HourlyPrecipIn,Conditions,Clouds,dailyrainin,SoftwareType,DateUTC
2013-02-03 00:04:00,21.6,13.9,29.32,ESE,110,5.0,5.0,72,0.00,-SN,,0.00,WeatherDisplay:10.37,2013-02-03 06:04:00,
2013-02-03 00:09:00,21.6,13.9,29.32,ESE,110,5.0,5.0,72,0.00,-SN,,0.00,WeatherDisplay:10.37,2013-02-03 06:09:00,
2013-02-03 00:14:00,21.7,14.1,29.32,SE,128,5.0,5.0,72,0.00,-SN,,0.00,WeatherDisplay:10.37,2013-02-03 06:14:00,
2013-02-03 00:19:00,21.7,14.1,29.32,SE,133,5.0,5.0,72,0.00,-SN,,0.00,WeatherDisplay:10.37,2013-02-03 06:19:00,
2013-02-03 00:24:00,21.6,13.9,29.32,SE,132,5.0,5.0,72,0.00,-SN,,0.00,WeatherDisplay:10.37,2013-02-03 06:24:00,
2013-02-03 00:29:00,21.6,13.9,29.32,SE,130,3.0,4.0,72,0.00,-SN,,0.00,WeatherDisplay:10.37,2013-02-03 06:29:00,
2013-02-03 00:34:00,21.7,14.1,29.32,SE,130,3.0,4.0,72,0.00,OVC,,0.00,WeatherDisplay:10.37,2013-02-03 06:34:00,
2013-02-03 00:39:00,21.7,14.1,29.32,SE,130,3.0,4.0,72,0.00,OVC,,0.00,WeatherDisplay:10.37,2013-02-03 06:39:00,
2013-02-03 00:49:00,21.7,14.1,29.29,SE,130,3.0,4.0,72,0.00,-SN,,0.00,WeatherDisplay:10.37,2013-02-03 06:49:00,
2013-02-03 00:54:00,21.9,14.6,29.29,SE,130,3.0,3.0,73,0.00,-SN,,0.00,WeatherDisplay:10.37,2013-02-03 06:54:00,
2013-02-03 00:59:00,22.1,14.8,29.29,SE,132,3.0,4.0,73,0.00,-SN,,0.00,WeatherDisplay:10.37,2013-02-03 06:59:00,
2013-02-03 01:05:00,22.3,14.9,29.29,SE,131,3.0,4.0,73,0.00,-SN,,0.00,WeatherDisplay:10.37,2013-02-03 07:05:00,
2013-02-03 01:10:00,22.3,14.9,29.29,SE,130,3.0,4.0,73,0.00,-SN,,0.00,WeatherDisplay:10.37,2013-02-03 07:10:00,
2013-02-03 01:20:00,22.5,15.1,29.29,SE,130,3.0,4.0,73,0.00,-SN,,0.00,WeatherDisplay:10.37,2013-02-03 07:20:00,
2013-02-03 01:25:00,22.5,15.1,29.29,SE,130,3.0,4.0,73,0.00,-SN,,0.00,WeatherDisplay:10.37,2013-02-03 07:25:00,
2013-02-03 01:30:00,22.5,15.4,29.29,SE,130,3.0,4.0,74,0.00,-SN,,0.00,WeatherDisplay:10.37,2013-02-03 07:30:00,
2013-02-03 01:35:00,22.5,15.4,29.29,SE,130,3.0,4.0,74,0.00,-SN,,0.00,WeatherDisplay:10.37,2013-02-03 07:35:00,
2013-02-03 01:40:00,22.5,15.4,29.29,SE,131,3.0,4.0,74,0.00,-SN,,0.00,WeatherDisplay:10.37,2013-02-03 07:40:00,
2013-02-03 01:50:00,22.5,15.4,29.29,SE,136,3.0,4.0,74,0.00,-SN,,0.00,WeatherDisplay:10.37,2013-02-03 07:50:00,
2013-02-03 01:55:00,22.5,15.4,29.29,SE,136,3.0,4.0,74,0.00,-SN,,0.00,WeatherDisplay:10.37,2013-02-03 07:55:00,
2013-02-03 02:00:00,22.5,15.4,29.26,SE,135,3.0,4.0,74,0.00,-SN,,0.00,WeatherDisplay:10.37,2013-02-03 08:00:00,
2013-02-03 02:05:00,22.6,15.6,29.26,SE,143,3.0,4.0,74,0.00,OVC,,0.00,WeatherDisplay:10.37,2013-02-03 08:05:00,
2013-02-03 02:10:00,22.5,15.4,29.29,SSE,147,5.0,5.0,74,0.00,OVC,,0.00,WeatherDisplay:10.37,2013-02-03 08:10:00,
2013-02-03 02:15:00,22.6,15.6,29.29,SSE,156,5.0,5.0,74,0.00,OVC,,0.00,WeatherDisplay:10.37,2013-02-03 08:15:00,
2013-02-03 02:20:00,22.6,15.6,29.29,SSE,160,5.0,5.0,74,0.00,OVC,,0.00,WeatherDisplay:10.37,2013-02-03 08:20:00,
2013-02-03 02:25:00,22.8,15.8,29.26,SSE,161,5.0,5.0,74,0.00,OVC,,0.00,WeatherDisplay:10.37,2013-02-03 08:25:00,
2013-02-03 02:30:00,23.0,16.3,29.26,SSE,161,6.0,6.0,75,0.00,OVC,,0.00,WeatherDisplay:10.37,2013-02-03 08:30:00,
2013-02-03 02:35:00,22.6,15.9,29.26,SSE,160,6.0,6.0,75,0.00,OVC,,0.00,WeatherDisplay:10.37,2013-02-03 08:35:00,
2013-02-03 02:40:00,22.8,16.1,29.26,SSE,161,6.0,6.0,75,0.00,OVC,,0.00,WeatherDisplay:10.37,2013-02-03 08:40:00,
2013-02-03 02:45:00,23.0,16.3,29.26,SSE,167,6.0,6.0,75,0.00,OVC,,0.00,WeatherDisplay:10.37,2013-02-03 08:45:00,
2013-02-03 02:50:00,23.0,16.3,29.26,South,170,6.0,6.0,75,0.00,OVC,,0.00,WeatherDisplay:10.37,2013-02-03 08:50:00,
2013-02-03 02:55:00,23.0,16.3,29.26,South,170,6.0,6.0,75,0.00,OVC,,0.00,WeatherDisplay:10.37,2013-02-03 08:55:00,
2013-02-03 03:00:00,23.0,16.3,29.26,South,170,6.0,6.0,75,0.00,OVC,,0.00,WeatherDisplay:10.37,2013-02-03 09:00:00,
2013-02-03 03:05:00,23.0,16.3,29.26,South,170,6.0,6.0,75,0.00,OVC,,0.00,WeatherDisplay:10.37,2013-02-03 09:05:00,
2013-02-03 03:10:00,23.0,16.6,29.26,South,170,6.0,6.0,76,0.00,OVC,,0.00,WeatherDisplay:10.37,2013-02-03 09:10:00,
2013-02-03 03:15:00,23.0,16.6,29.26,South,170,6.0,6.0,76,0.00,OVC,,0.00,WeatherDisplay:10.37,2013-02-03 09:15:00,
2013-02-03 03:20:00,23.0,16.6,29.26,South,187,6.0,6.0,76,0.00,SCT,,0.00,WeatherDisplay:10.37,2013-02-03 09:20:00,
2013-02-03 03:25:00,23.0,16.6,29.26,SSW,195,6.0,6.0,76,0.00,SCT,,0.00,WeatherDisplay:10.37,2013-02-03 09:25:00,
2013-02-03 03:30:00,23.0,16.6,29.26,SSW,195,6.0,6.0,76,0.00,SCT,,0.00,WeatherDisplay:10.37,2013-02-03 09:30:00,
2013-02-03 03:35:00,23.0,16.6,29.26,SSW,195,6.0,6.0,76,0.00,SCT,,0.00,WeatherDisplay:10.37,2013-02-03 09:35:00,
2013-02-03 03:40:00,23.2,16.7,29.26,SSW,195,6.0,6.0,76,0.00,SCT,,0.00,WeatherDisplay:10.37,2013-02-03 09:40:00,
2013-02-03 03:50:00,23.4,16.9,29.26,SSW,195,5.0,5.0,76,0.00,CLR,,0.00,WeatherDisplay:10.37,2013-02-03 09:50:00,
2013-02-03 04:00:00,23.4,16.9,29.26,SSW,195,3.0,4.0,76,0.00,CLR,,0.00,WeatherDisplay:10.37,2013-02-03 10:00:00,
2013-02-03 04:05:00,23.5,17.1,29.26,SSW,195,2.0,3.0,76,0.00,SCT,,0.00,WeatherDisplay:10.37,2013-02-03 10:05:00,
2013-02-03 04:10:00,23.7,17.3,29.26,SSW,195,2.0,3.0,76,0.00,SCT,,0.00,WeatherDisplay:10.37,2013-02-03 10:10:00,
2013-02-03 04:15:00,23.7,17.3,29.26,SSW,195,2.0,3.0,76,0.00,SCT,,0.00,WeatherDisplay:10.37,2013-02-03 10:15:00,
2013-02-03 04:20:00,23.9,17.4,29.26,SSW,195,2.0,2.0,76,0.00,SCT,,0.00,WeatherDisplay:10.37,2013-02-03 10:20:00,
2013-02-03 04:25:00,24.1,17.6,29.26,SSW,195,2.0,2.0,76,0.00,SCT,,0.00,WeatherDisplay:10.37,2013-02-03 10:25:00,
2013-02-03 04:30:00,24.3,17.8,29.26,SSW,195,2.0,2.0,76,0.00,SCT,,0.00,WeatherDisplay:10.37,2013-02-03 10:30:00,
2013-02-03 04:35:00,24.3,18.1,29.26,SSW,202,2.0,2.0,77,0.00,BKN,,0.00,WeatherDisplay:10.37,2013-02-03 10:35:00,
2013-02-03 04:40:00,24.4,18.3,29.26,SSW,205,2.0,2.0,77,0.00,BKN,,0.00,WeatherDisplay:10.37,2013-02-03 10:40:00,
2013-02-03 04:45:00,24.6,18.4,29.26,SSW,205,2.0,3.0,77,0.00,BKN,,0.00,WeatherDisplay:10.37,2013-02-03 10:45:00,
2013-02-03 04:50:00,24.8,18.6,29.26,SW,216,3.0,3.0,77,0.00,SCT,,0.00,WeatherDisplay:10.37,2013-02-03 10:50:00,
2013-02-03 04:55:00,24.8,18.6,29.26,SW,220,3.0,3.0,77,0.00,SCT,,0.00,WeatherDisplay:10.37,2013-02-03 10:55:00,
2013-02-03 05:00:00,25.2,19.3,29.26,SW,226,3.0,3.0,78,0.00,SCT,,0.00,WeatherDisplay:10.37,2013-02-03 11:00:00,
2013-02-03 05:05:00,25.2,19.3,29.26,WSW,256,3.0,3.0,78,0.00,BKN,,0.00,WeatherDisplay:10.37,2013-02-03 11:05:00,
2013-02-03 05:10:00,25.2,19.3,29.26,WSW,249,3.0,3.0,78,0.00,BKN,,0.00,WeatherDisplay:10.37,2013-02-03 11:10:00,
2013-02-03 05:15:00,25.5,19.6,29.26,SW,225,3.0,3.0,78,0.00,BKN,,0.00,WeatherDisplay:10.37,2013-02-03 11:15:00,
2013-02-03 05:20:00,25.9,20.3,29.26,WSW,254,3.0,4.0,79,0.00,BKN,,0.00,WeatherDisplay:10.37,2013-02-03 11:20:00,
2013-02-03 05:25:00,25.9,20.3,29.26,West,277,3.0,4.0,79,0.00,BKN,,0.00,WeatherDisplay:10.37,2013-02-03 11:25:00,
2013-02-03 05:30:00,25.9,20.3,29.26,West,274,3.0,4.0,79,0.00,BKN,,0.00,WeatherDisplay:10.37,2013-02-03 11:30:00,
2013-02-03 05:35:00,26.2,20.6,29.26,West,269,3.0,3.0,79,0.00,OVC,,0.00,WeatherDisplay:10.37,2013-02-03 11:35:00,
2013-02-03 05:40:00,26.2,20.6,29.26,West,270,3.0,3.0,79,0.00,OVC,,0.00,WeatherDisplay:10.37,2013-02-03 11:40:00,
2013-02-03 05:50:00,26.4,21.1,29.26,West,270,3.0,4.0,80,0.00,OVC,,0.00,WeatherDisplay:10.37,2013-02-03 11:50:00,
2013-02-03 05:55:00,26.6,21.3,29.26,West,270,5.0,5.0,80,0.00,OVC,,0.00,WeatherDisplay:10.37,2013-02-03 11:55:00,
2013-02-03 06:00:00,26.8,21.4,29.26,West,272,5.0,5.0,80,0.00,OVC,,0.00,WeatherDisplay:10.37,2013-02-03 12:00:00,
2013-02-03 06:05:00,27.0,21.6,29.26,West,275,6.0,6.0,80,0.00,BKN,,0.00,WeatherDisplay:10.37,2013-02-03 12:05:00,
2013-02-03 06:10:00,27.1,21.8,29.26,WNW,283,6.0,6.0,80,0.00,BKN,,0.00,WeatherDisplay:10.37,2013-02-03 12:10:00,
2013-02-03 06:15:00,27.3,22.0,29.26,WNW,295,6.0,6.0,80,0.00,BKN,,0.00,WeatherDisplay:10.37,2013-02-03 12:15:00,
2013-02-03 06:20:00,27.5,22.4,29.26,WNW,299,6.0,6.0,81,0.00,BKN,,0.00,WeatherDisplay:10.37,2013-02-03 12:20:00,
2013-02-03 06:25:00,27.5,22.4,29.26,WNW,298,6.0,6.0,81,0.00,BKN,,0.00,WeatherDisplay:10.37,2013-02-03 12:25:00,
2013-02-03 06:30:00,27.7,22.6,29.26,WNW,299,7.0,7.0,81,0.00,BKN,,0.00,WeatherDisplay:10.37,2013-02-03 12:30:00,
2013-02-03 06:35:00,27.9,22.5,29.26,NW,304,7.0,7.0,80,0.00,OVC,,0.00,WeatherDisplay:10.37,2013-02-03 12:35:00,
2013-02-03 06:40:00,27.9,22.5,29.26,NW,304,8.0,8.0,80,0.00,OVC,,0.00,WeatherDisplay:10.37,2013-02-03 12:40:00,
2013-02-03 06:45:00,27.9,22.5,29.26,WNW,300,8.0,8.0,80,0.00,OVC,,0.00,WeatherDisplay:10.37,2013-02-03 12:45:00,
2013-02-03 06:50:00,28.0,22.7,29.26,WNW,293,8.0,9.0,80,0.00,OVC,,0.00,WeatherDisplay:10.37,2013-02-03 12:50:00,
2013-02-03 06:55:00,28.0,22.7,29.26,WNW,290,9.0,9.0,80,0.00,OVC,,0.00,WeatherDisplay:10.37,2013-02-03 12:55:00,
2013-02-03 07:00:00,28.0,22.7,29.26,WNW,297,9.0,9.0,80,0.00,OVC,,0.00,WeatherDisplay:10.37,2013-02-03 13:00:00,
2013-02-03 07:05:00,28.0,22.7,29.26,WNW,302,9.0,10.0,80,0.00,OVC,,0.00,WeatherDisplay:10.37,2013-02-03 13:05:00,
2013-02-03 07:10:00,28.2,22.8,29.26,NW,304,10.0,10.0,80,0.00,OVC,,0.00,WeatherDisplay:10.37,2013-02-03 13:10:00,
2013-02-03 07:15:00,28.2,22.8,29.26,WNW,303,10.0,10.0,80,0.00,OVC,,0.00,WeatherDisplay:10.37,2013-02-03 13:15:00,
2013-02-03 07:20:00,28.2,22.5,29.26,NW,304,10.0,10.0,79,0.00,OVC,,0.00,WeatherDisplay:10.37,2013-02-03 13:20:00,
2013-02-03 07:25:00,28.2,22.5,29.26,NW,307,9.0,10.0,79,0.00,OVC,,0.00,WeatherDisplay:10.37,2013-02-03 13:25:00,
2013-02-03 07:30:00,28.2,22.5,29.29,NW,310,9.0,10.0,79,0.00,OVC,,0.00,WeatherDisplay:10.37,2013-02-03 13:30:00,
2013-02-03 07:35:00,28.2,22.2,29.29,NW,318,10.0,10.0,78,0.00,OVC,,0.00,WeatherDisplay:10.37,2013-02-03 13:35:00,
2013-02-03 07:40:00,28.4,22.1,29.29,NW,324,10.0,10.0,77,0.00,OVC,,0.00,WeatherDisplay:10.37,2013-02-03 13:40:00,
2013-02-03 07:45:00,28.2,21.6,29.29,NNW,330,12.0,12.0,76,0.00,OVC,,0.00,WeatherDisplay:10.37,2013-02-03 13:45:00,
2013-02-03 07:50:00,28.2,21.6,29.29,NNW,330,12.0,12.0,76,0.00,OVC,,0.00,WeatherDisplay:10.37,2013-02-03 13:50:00,
2013-02-03 07:55:00,28.2,21.6,29.29,NNW,330,12.0,12.0,76,0.00,OVC,,0.00,WeatherDisplay:10.37,2013-02-03 13:55:00,
2013-02-03 08:05:00,28.4,20.5,29.29,NNW,330,13.0,13.0,72,0.00,OVC,,0.00,WeatherDisplay:10.37,2013-02-03 14:05:00,
2013-02-03 08:10:00,28.4,20.2,29.29,NW,326,14.0,14.0,71,0.00,OVC,,0.00,WeatherDisplay:10.37,2013-02-03 14:10:00,
2013-02-03 08:15:00,28.4,19.9,29.29,NW,320,14.0,14.0,70,0.00,OVC,,0.00,WeatherDisplay:10.37,2013-02-03 14:15:00,
2013-02-03 08:20:00,28.4,19.9,29.29,NW,324,14.0,14.0,70,0.00,OVC,,0.00,WeatherDisplay:10.37,2013-02-03 14:20:00,
2013-02-03 08:30:00,28.9,20.0,29.29,NW,320,14.0,14.0,69,0.00,OVC,,0.00,WeatherDisplay:10.37,2013-02-03 14:30:00,
2013-02-03 08:35:00,29.1,19.9,29.29,NW,320,14.0,14.0,68,0.00,OVC,,0.00,WeatherDisplay:10.37,2013-02-03 14:35:00,
2013-02-03 08:40:00,29.1,19.9,29.29,NW,318,14.0,14.0,68,0.00,OVC,,0.00,WeatherDisplay:10.37,2013-02-03 14:40:00,
2013-02-03 08:45:00,28.9,19.3,29.32,NW,315,14.0,14.0,67,0.00,OVC,,0.00,WeatherDisplay:10.37,2013-02-03 14:45:00,
2013-02-03 08:50:00,28.9,18.6,29.32,NW,315,14.0,14.0,65,0.00,OVC,,0.00,WeatherDisplay:10.37,2013-02-03 14:50:00,
2013-02-03 09:00:00,29.1,17.7,29.32,NW,320,15.0,15.0,62,0.00,OVC,,0.00,WeatherDisplay:10.37,2013-02-03 15:00:00,
2013-02-03 09:05:00,29.1,17.0,29.32,NW,324,15.0,15.0,60,0.00,OVC,,0.00,WeatherDisplay:10.37,2013-02-03 15:05:00,
2013-02-03 09:10:00,29.7,17.1,29.32,NW,319,16.0,16.0,59,0.00,OVC,,0.00,WeatherDisplay:10.37,2013-02-03 15:10:00,
2013-02-03 09:15:00,28.9,15.6,29.32,NW,314,17.0,17.0,57,0.00,OVC,,0.00,WeatherDisplay:10.37,2013-02-03 15:15:00,
2013-02-03 09:20:00,28.9,15.6,29.32,NW,314,17.0,18.0,57,0.00,OVC,,0.00,WeatherDisplay:10.37,2013-02-03 15:20:00,
2013-02-03 09:30:00,28.6,15.3,29.32,NW,315,18.0,19.0,57,0.00,OVC,,0.00,WeatherDisplay:10.37,2013-02-03 15:30:00,
2013-02-03 09:35:00,28.9,16.0,29.32,NW,313,18.0,19.0,58,0.00,OVC,,0.00,WeatherDisplay:10.37,2013-02-03 15:35:00,
2013-02-03 09:40:00,28.9,16.0,29.32,NW,314,18.0,18.0,58,0.00,OVC,,0.00,WeatherDisplay:10.37,2013-02-03 15:40:00,
2013-02-03 09:50:00,28.6,15.7,29.35,NW,310,18.0,19.0,58,0.00,OVC,,0.00,WeatherDisplay:10.37,2013-02-03 15:50:00,
2013-02-03 09:55:00,28.6,15.7,29.35,NW,312,18.0,18.0,58,0.00,OVC,,0.00,WeatherDisplay:10.37,2013-02-03 15:55:00,
2013-02-03 10:00:00,28.9,16.0,29.35,NW,311,18.0,19.0,58,0.00,OVC,,0.00,WeatherDisplay:10.37,2013-02-03 16:00:00,
2013-02-03 10:05:00,29.3,15.9,29.35,NW,313,18.0,19.0,57,0.00,OVC,,0.00,WeatherDisplay:10.37,2013-02-03 16:05:00,
2013-02-03 10:10:00,29.3,15.5,29.35,NW,314,18.0,18.0,56,0.00,OVC,,0.00,WeatherDisplay:10.37,2013-02-03 16:10:00,
2013-02-03 10:15:00,28.8,15.0,29.35,NW,311,18.0,18.0,56,0.00,OVC,,0.00,WeatherDisplay:10.37,2013-02-03 16:15:00,
2013-02-03 10:20:00,28.8,14.6,29.35,NW,305,18.0,18.0,55,0.00,OVC,,0.00,WeatherDisplay:10.37,2013-02-03 16:20:00,
2013-02-03 10:30:00,28.8,14.6,29.35,NW,312,18.0,18.0,55,0.00,OVC,,0.00,WeatherDisplay:10.37,2013-02-03 16:30:00,
2013-02-03 10:35:00,28.6,14.9,29.35,NW,309,18.0,18.0,56,0.00,OVC,,0.00,WeatherDisplay:10.37,2013-02-03 16:35:00,
2013-02-03 10:40:00,28.6,14.9,29.35,NW,304,18.0,18.0,56,0.00,OVC,,0.00,WeatherDisplay:10.37,2013-02-03 16:40:00,
2013-02-03 10:45:00,29.1,15.4,29.35,NW,304,18.0,18.0,56,0.00,OVC,,0.00,WeatherDisplay:10.37,2013-02-03 16:45:00,
2013-02-03 10:50:00,28.8,14.6,29.38,NW,316,18.0,19.0,55,0.00,OVC,,0.00,WeatherDisplay:10.37,2013-02-03 16:50:00,
2013-02-03 10:55:00,29.3,15.1,29.38,NW,319,18.0,19.0,55,0.00,OVC,,0.00,WeatherDisplay:10.37,2013-02-03 16:55:00,
2013-02-03 11:00:00,30.0,16.2,29.38,NW,312,18.0,19.0,56,0.00,OVC,,0.00,WeatherDisplay:10.37,2013-02-03 17:00:00,
2013-02-03 11:05:00,30.0,15.8,29.38,NW,307,18.0,18.0,55,0.00,BKN,,0.00,WeatherDisplay:10.37,2013-02-03 17:05:00,
2013-02-03 11:10:00,30.2,15.5,29.38,NW,308,18.0,18.0,54,0.00,BKN,,0.00,WeatherDisplay:10.37,2013-02-03 17:10:00,
2013-02-03 11:15:00,30.4,15.3,29.38,NW,308,18.0,18.0,53,0.00,BKN,,0.00,WeatherDisplay:10.37,2013-02-03 17:15:00,
2013-02-03 11:20:00,28.8,13.3,29.38,NW,308,18.0,18.0,52,0.00,BKN,,0.00,WeatherDisplay:10.37,2013-02-03 17:20:00,
2013-02-03 11:30:00,29.7,15.0,29.38,NW,313,18.0,18.0,54,0.00,BKN,,0.00,WeatherDisplay:10.37,2013-02-03 17:30:00,
2013-02-03 11:35:00,29.8,14.8,29.38,NW,322,18.0,18.0,53,0.00,BKN,,0.00,WeatherDisplay:10.37,2013-02-03 17:35:00,
2013-02-03 11:40:00,30.2,15.1,29.38,NW,323,18.0,18.0,53,0.00,BKN,,0.00,WeatherDisplay:10.37,2013-02-03 17:40:00,
2013-02-03 11:50:00,30.2,14.7,29.38,NW,314,17.0,18.0,52,0.00,SCT,,0.00,WeatherDisplay:10.37,2013-02-03 17:50:00,
2013-02-03 11:55:00,30.4,14.8,29.38,NW,316,18.0,18.0,52,0.00,SCT,,0.00,WeatherDisplay:10.37,2013-02-03 17:55:00,
2013-02-03 12:00:00,30.9,14.9,29.38,NW,316,18.0,18.0,51,0.00,SCT,,0.00,WeatherDisplay:10.37,2013-02-03 18:00:00,
2013-02-03 12:05:00,30.4,13.5,29.38,NW,315,18.0,18.0,49,0.00,SCT,,0.00,WeatherDisplay:10.37,2013-02-03 18:05:00,
2013-02-03 12:10:00,30.2,13.8,29.38,NW,310,17.0,18.0,50,0.00,SCT,,0.00,WeatherDisplay:10.37,2013-02-03 18:10:00,
2013-02-03 12:20:00,30.9,14.4,29.38,NW,308,17.0,17.0,50,0.00,SCT,,0.00,WeatherDisplay:10.37,2013-02-03 18:20:00,
2013-02-03 12:25:00,30.9,14.4,29.38,NW,305,17.0,17.0,50,0.00,SCT,,0.00,WeatherDisplay:10.37,2013-02-03 18:25:00,
2013-02-03 12:30:00,30.9,14.4,29.38,WNW,302,18.0,18.0,50,0.00,SCT,,0.00,WeatherDisplay:10.37,2013-02-03 18:30:00,
2013-02-03 12:35:00,30.6,14.1,29.38,NW,304,18.0,18.0,50,0.00,SCT,,0.00,WeatherDisplay:10.37,2013-02-03 18:35:00,
2013-02-03 12:40:00,30.4,13.9,29.38,WNW,303,18.0,18.0,50,0.00,SCT,,0.00,WeatherDisplay:10.37,2013-02-03 18:40:00,
2013-02-03 12:45:00,31.1,14.6,29.38,NW,307,18.0,18.0,50,0.00,SCT,,0.00,WeatherDisplay:10.37,2013-02-03 18:45:00,
2013-02-03 12:50:00,31.3,14.8,29.38,NW,307,18.0,18.0,50,0.00,SCT,,0.00,WeatherDisplay:10.37,2013-02-03 18:50:00,
2013-02-03 12:55:00,31.5,14.0,29.38,NW,305,18.0,18.0,48,0.00,SCT,,0.00,WeatherDisplay:10.37,2013-02-03 18:55:00,
2013-02-03 13:00:00,32.9,16.3,29.38,NW,305,17.0,18.0,50,0.00,SCT,,0.00,WeatherDisplay:10.37,2013-02-03 19:00:00,
2013-02-03 13:05:00,32.9,16.3,29.38,NW,309,17.0,18.0,50,0.00,SCT,,0.00,WeatherDisplay:10.37,2013-02-03 19:05:00,
2013-02-03 13:10:00,32.2,15.6,29.38,NW,311,18.0,18.0,50,0.00,SCT,,0.00,WeatherDisplay:10.37,2013-02-03 19:10:00,
2013-02-03 13:20:00,31.5,14.9,29.38,NW,305,18.0,18.0,50,0.00,SCT,,0.00,WeatherDisplay:10.37,2013-02-03 19:20:00,
2013-02-03 13:25:00,31.5,14.9,29.38,NW,306,18.0,18.0,50,0.00,SCT,,0.00,WeatherDisplay:10.37,2013-02-03 19:25:00,
2013-02-03 13:30:00,31.5,14.9,29.38,NW,306,18.0,18.0,50,0.00,SCT,,0.00,WeatherDisplay:10.37,2013-02-03 19:30:00,
2013-02-03 13:40:00,31.1,13.2,29.38,NW,310,18.0,18.0,47,0.00,SCT,,0.00,WeatherDisplay:10.37,2013-02-03 19:40:00,
2013-02-03 13:50:00,32.0,15.4,29.38,NW,310,17.0,18.0,50,0.00,SCT,,0.00,WeatherDisplay:10.37,2013-02-03 19:50:00,
2013-02-03 13:55:00,32.4,15.3,29.38,NW,310,17.0,17.0,49,0.00,SCT,,0.00,WeatherDisplay:10.37,2013-02-03 19:55:00,
2013-02-03 14:05:00,31.8,13.9,29.38,NW,304,16.0,16.0,47,0.00,CLR,,0.00,WeatherDisplay:10.37,2013-02-03 20:05:00,
2013-02-03 14:10:00,32.0,14.0,29.38,NW,308,16.0,16.0,47,0.00,CLR,,0.00,WeatherDisplay:10.37,2013-02-03 20:10:00,
2013-02-03 14:15:00,32.5,14.5,29.38,NW,312,16.0,16.0,47,0.00,CLR,,0.00,WeatherDisplay:10.37,2013-02-03 20:15:00,
2013-02-03 14:20:00,32.2,13.7,29.38,NW,308,15.0,16.0,46,0.00,CLR,,0.00,WeatherDisplay:10.37,2013-02-03 20:20:00,
2013-02-03 14:25:00,32.5,14.0,29.38,NW,307,15.0,15.0,46,0.00,CLR,,0.00,WeatherDisplay:10.37,2013-02-03 20:25:00,
2013-02-03 14:35:00,32.0,13.5,29.38,NW,304,15.0,15.0,46,0.00,CLR,,0.00,WeatherDisplay:10.37,2013-02-03 20:35:00,
2013-02-03 14:40:00,32.4,13.9,29.38,NW,310,15.0,15.0,46,0.00,CLR,,0.00,WeatherDisplay:10.37,2013-02-03 20:40:00,
2013-02-03 14:50:00,32.5,14.0,29.38,NW,312,15.0,15.0,46,0.00,CLR,,0.00,WeatherDisplay:10.37,2013-02-03 20:50:00,
2013-02-03 14:55:00,32.5,13.5,29.38,NW,317,14.0,15.0,45,0.00,CLR,,0.00,WeatherDisplay:10.37,2013-02-03 20:55:00,
2013-02-03 15:00:00,32.5,13.5,29.38,NW,320,14.0,14.0,45,0.00,CLR,,0.00,WeatherDisplay:10.37,2013-02-03 21:00:00,
2013-02-03 15:05:00,32.5,13.5,29.38,NW,321,13.0,14.0,45,0.00,CLR,,0.00,WeatherDisplay:10.37,2013-02-03 21:05:00,
2013-02-03 15:10:00,32.5,13.0,29.38,NW,324,13.0,13.0,44,0.00,CLR,,0.00,WeatherDisplay:10.37,2013-02-03 21:10:00,
2013-02-03 15:15:00,32.9,13.9,29.38,NNW,330,13.0,13.0,45,0.00,CLR,,0.00,WeatherDisplay:10.37,2013-02-03 21:15:00,
2013-02-03 15:20:00,32.5,13.5,29.38,NNW,330,13.0,13.0,45,0.00,CLR,,0.00,WeatherDisplay:10.37,2013-02-03 21:20:00,
2013-02-03 15:25:00,32.7,13.7,29.38,NNW,330,13.0,13.0,45,0.00,CLR,,0.00,WeatherDisplay:10.37,2013-02-03 21:25:00,
2013-02-03 15:30:00,32.7,13.7,29.38,NNW,330,13.0,13.0,45,0.00,CLR,,0.00,WeatherDisplay:10.37,2013-02-03 21:30:00,
2013-02-03 15:35:00,32.2,12.7,29.38,NNW,330,13.0,13.0,44,0.00,CLR,,0.00,WeatherDisplay:10.37,2013-02-03 21:35:00,
2013-02-03 15:40:00,32.2,13.2,29.38,NW,320,13.0,13.0,45,0.00,CLR,,0.00,WeatherDisplay:10.37,2013-02-03 21:40:00,
2013-02-03 15:50:00,32.5,13.5,29.38,NW,305,12.0,13.0,45,0.00,CLR,,0.00,WeatherDisplay:10.37,2013-02-03 21:50:00,
2013-02-03 15:55:00,32.0,13.0,29.38,NW,305,12.0,12.0,45,0.00,CLR,,0.00,WeatherDisplay:10.37,2013-02-03 21:55:00,
2013-02-03 16:00:00,32.0,13.5,29.38,WNW,298,10.0,11.0,46,0.00,CLR,,0.00,WeatherDisplay:10.37,2013-02-03 22:00:00,
2013-02-03 16:05:00,32.4,13.4,29.38,WNW,300,10.0,11.0,45,0.00,CLR,,0.00,WeatherDisplay:10.37,2013-02-03 22:05:00,
2013-02-03 16:10:00,32.2,13.2,29.38,NW,307,10.0,10.0,45,0.00,CLR,,0.00,WeatherDisplay:10.37,2013-02-03 22:10:00,
2013-02-03 16:15:00,32.0,13.0,29.38,NW,315,9.0,10.0,45,0.00,CLR,,0.00,WeatherDisplay:10.37,2013-02-03 22:15:00,
2013-02-03 16:20:00,31.8,12.4,29.38,NW,315,9.0,9.0,44,0.00,CLR,,0.00,WeatherDisplay:10.37,2013-02-03 22:20:00,
2013-02-03 16:25:00,32.0,12.5,29.38,NW,311,9.0,9.0,44,0.00,CLR,,0.00,WeatherDisplay:10.37,2013-02-03 22:25:00,
2013-02-03 16:30:00,31.8,12.9,29.38,WNW,302,9.0,9.0,45,0.00,CLR,,0.00,WeatherDisplay:10.37,2013-02-03 22:30:00,
2013-02-03 16:35:00,31.5,12.0,29.38,NW,305,9.0,9.0,44,0.00,BKN,,0.00,WeatherDisplay:10.37,2013-02-03 22:35:00,
2013-02-03 16:40:00,31.5,12.0,29.38,NW,311,9.0,9.0,44,0.00,BKN,,0.00,WeatherDisplay:10.37,2013-02-03 22:40:00,
2013-02-03 16:45:00,31.1,11.2,29.38,NW,310,8.0,9.0,43,0.00,BKN,,0.00,WeatherDisplay:10.37,2013-02-03 22:45:00,
2013-02-03 16:50:00,31.1,11.7,29.38,NW,305,8.0,9.0,44,0.00,OVC,,0.00,WeatherDisplay:10.37,2013-02-03 22:50:00,
2013-02-03 16:55:00,31.1,12.2,29.38,WNW,303,8.0,8.0,45,0.00,OVC,,0.00,WeatherDisplay:10.37,2013-02-03 22:55:00,
2013-02-03 17:00:00,31.1,12.2,29.38,WNW,302,7.0,8.0,45,0.00,OVC,,0.00,WeatherDisplay:10.37,2013-02-03 23:00:00,
2013-02-03 17:05:00,31.3,12.9,29.38,WNW,293,7.0,7.0,46,0.00,OVC,,0.00,WeatherDisplay:10.37,2013-02-03 23:05:00,
2013-02-03 17:10:00,31.1,12.2,29.38,WNW,292,7.0,7.0,45,0.00,OVC,,0.00,WeatherDisplay:10.37,2013-02-03 23:10:00,
2013-02-03 17:15:00,30.9,12.0,29.38,WNW,295,7.0,7.0,45,0.00,OVC,,0.00,WeatherDisplay:10.37,2013-02-03 23:15:00,
2013-02-03 17:20:00,30.6,11.7,29.38,WNW,301,7.0,7.0,45,0.00,OVC,,0.00,WeatherDisplay:10.37,2013-02-03 23:20:00,
2013-02-03 17:30:00,30.2,11.4,29.38,NW,305,7.0,7.0,45,0.00,OVC,,0.00,WeatherDisplay:10.37,2013-02-03 23:30:00,
2013-02-03 17:35:00,29.7,11.4,29.38,WNW,296,6.0,7.0,46,0.00,OVC,,0.00,WeatherDisplay:10.37,2013-02-03 23:35:00,
2013-02-03 17:40:00,29.3,11.1,29.38,WNW,282,6.0,6.0,46,0.00,OVC,,0.00,WeatherDisplay:10.37,2013-02-03 23:40:00,
2013-02-03 17:45:00,28.4,10.7,29.38,West,265,5.0,6.0,47,0.00,OVC,,0.00,WeatherDisplay:10.37,2013-02-03 23:45:00,
2013-02-03 17:50:00,27.7,10.5,29.38,West,265,5.0,5.0,48,0.00,OVC,,0.00,WeatherDisplay:10.37,2013-02-03 23:50:00,
2013-02-03 17:55:00,27.7,11.0,29.35,West,265,5.0,5.0,49,0.00,OVC,,0.00,WeatherDisplay:10.37,2013-02-03 23:55:00,
2013-02-03 18:00:00,27.1,10.9,29.38,West,265,5.0,5.0,50,0.00,OVC,,0.00,WeatherDisplay:10.37,2013-02-04 00:00:00,
2013-02-03 18:05:00,27.0,11.2,29.35,West,262,3.0,5.0,51,0.00,SCT,,0.00,WeatherDisplay:10.37,2013-02-04 00:05:00,
2013-02-03 18:15:00,26.4,10.7,29.35,WSW,252,3.0,3.0,51,0.00,SCT,,0.00,WeatherDisplay:10.37,2013-02-04 00:15:00,
2013-02-03 18:20:00,26.2,11.0,29.35,SW,223,3.0,3.0,52,0.00,SCT,,0.00,WeatherDisplay:10.37,2013-02-04 00:20:00,
2013-02-03 18:25:00,26.1,11.2,29.35,SW,218,3.0,3.0,53,0.00,SCT,,0.00,WeatherDisplay:10.37,2013-02-04 00:25:00,
2013-02-03 18:30:00,26.1,11.7,29.35,SW,215,3.0,3.0,54,0.00,SCT,,0.00,WeatherDisplay:10.37,2013-02-04 00:30:00,
2013-02-03 18:35:00,25.7,11.7,29.35,SW,215,2.0,3.0,55,0.00,CLR,,0.00,WeatherDisplay:10.37,2013-02-04 00:35:00,
2013-02-03 18:40:00,25.7,11.7,29.35,SW,215,2.0,3.0,55,0.00,CLR,,0.00,WeatherDisplay:10.37,2013-02-04 00:40:00,
2013-02-03 18:45:00,25.7,11.7,29.35,SW,215,2.0,3.0,55,0.00,CLR,,0.00,WeatherDisplay:10.37,2013-02-04 00:45:00,
2013-02-03 18:50:00,25.7,12.2,29.35,SW,215,2.0,3.0,56,0.00,CLR,,0.00,WeatherDisplay:10.37,2013-02-04 00:50:00,
2013-02-03 18:55:00,25.7,12.2,29.35,SW,215,2.0,3.0,56,0.00,CLR,,0.00,WeatherDisplay:10.37,2013-02-04 00:55:00,
2013-02-03 19:00:00,25.5,12.0,29.35,SW,215,3.0,3.0,56,0.00,CLR,,0.00,WeatherDisplay:10.37,2013-02-04 01:00:00,
2013-02-03 19:05:00,25.5,12.4,29.35,SW,215,3.0,3.0,57,0.00,CLR,,0.00,WeatherDisplay:10.37,2013-02-04 01:05:00,
2013-02-03 19:10:00,25.7,12.6,29.35,SSW,212,3.0,3.0,57,0.00,CLR,,0.00,WeatherDisplay:10.37,2013-02-04 01:10:00,
2013-02-03 19:15:00,25.7,12.9,29.35,SSW,203,3.0,3.0,58,0.00,CLR,,0.00,WeatherDisplay:10.37,2013-02-04 01:15:00,
2013-02-03 19:20:00,25.7,13.3,29.35,SSW,204,3.0,4.0,59,0.00,CLR,,0.00,WeatherDisplay:10.37,2013-02-04 01:20:00,
2013-02-03 19:25:00,25.7,13.3,29.35,SSW,205,3.0,4.0,59,0.00,CLR,,0.00,WeatherDisplay:10.37,2013-02-04 01:25:00,
2013-02-03 19:30:00,25.7,13.7,29.35,SW,214,5.0,5.0,60,0.00,CLR,,0.00,WeatherDisplay:10.37,2013-02-04 01:30:00,
2013-02-03 19:35:00,25.7,13.7,29.35,SW,221,5.0,5.0,60,0.00,CLR,,0.00,WeatherDisplay:10.37,2013-02-04 01:35:00,
2013-02-03 19:40:00,25.7,14.1,29.35,SW,221,5.0,5.0,61,0.00,CLR,,0.00,WeatherDisplay:10.37,2013-02-04 01:40:00,
2013-02-03 19:45:00,25.7,14.1,29.35,SW,220,5.0,5.0,61,0.00,CLR,,0.00,WeatherDisplay:10.37,2013-02-04 01:45:00,
2013-02-03 19:50:00,25.7,14.5,29.35,SSW,207,5.0,5.0,62,0.00,CLR,,0.00,WeatherDisplay:10.37,2013-02-04 01:50:00,
2013-02-03 19:55:00,25.9,15.0,29.35,SSW,204,6.0,6.0,63,0.00,CLR,,0.00,WeatherDisplay:10.37,2013-02-04 01:55:00,
2013-02-03 20:00:00,25.7,14.8,29.35,SSW,209,6.0,6.0,63,0.00,CLR,,0.00,WeatherDisplay:10.37,2013-02-04 02:00:00,
2013-02-03 20:05:00,25.5,15.0,29.35,SW,214,6.0,6.0,64,0.00,CLR,,0.00,WeatherDisplay:10.37,2013-02-04 02:05:00,
2013-02-03 20:10:00,25.7,15.2,29.38,SW,217,6.0,6.0,64,0.00,CLR,,0.00,WeatherDisplay:10.37,2013-02-04 02:10:00,
2013-02-03 20:20:00,25.3,15.2,29.35,SW,216,6.0,6.0,65,0.00,CLR,,0.00,WeatherDisplay:10.37,2013-02-04 02:20:00,
2013-02-03 20:25:00,25.3,15.2,29.35,SW,215,6.0,6.0,65,0.00,CLR,,0.00,WeatherDisplay:10.37,2013-02-04 02:25:00,
2013-02-03 20:30:00,25.2,15.4,29.35,SW,215,6.0,6.0,66,0.00,CLR,,0.00,WeatherDisplay:10.37,2013-02-04 02:30:00,
2013-02-03 20:40:00,25.0,15.6,29.35,SW,214,6.0,6.0,67,0.00,CLR,,0.00,WeatherDisplay:10.37,2013-02-04 02:40:00,
2013-02-03 20:50:00,25.0,15.9,29.35,SW,215,6.0,6.0,68,0.00,CLR,,0.00,WeatherDisplay:10.37,2013-02-04 02:50:00,
2013-02-03 20:55:00,25.0,15.9,29.35,SW,217,6.0,6.0,68,0.00,CLR,,0.00,WeatherDisplay:10.37,2013-02-04 02:55:00,
2013-02-03 21:00:00,24.8,16.1,29.35,SW,223,6.0,6.0,69,0.00,CLR,,0.00,WeatherDisplay:10.37,2013-02-04 03:00:00,
2013-02-03 21:05:00,24.8,16.4,29.35,SW,221,6.0,6.0,70,0.00,CLR,,0.00,WeatherDisplay:10.37,2013-02-04 03:05:00,
2013-02-03 21:10:00,24.8,16.4,29.35,SW,217,7.0,7.0,70,0.00,CLR,,0.00,WeatherDisplay:10.37,2013-02-04 03:10:00,
2013-02-03 21:20:00,24.8,16.7,29.35,SSW,213,7.0,7.0,71,0.00,CLR,,0.00,WeatherDisplay:10.37,2013-02-04 03:20:00,
2013-02-03 21:25:00,24.8,16.7,29.35,SSW,212,7.0,7.0,71,0.00,CLR,,0.00,WeatherDisplay:10.37,2013-02-04 03:25:00,
2013-02-03 21:30:00,25.0,16.9,29.35,SW,214,7.0,7.0,71,0.00,CLR,,0.00,WeatherDisplay:10.37,2013-02-04 03:30:00,
2013-02-03 21:35:00,25.0,16.9,29.35,SSW,213,7.0,7.0,71,0.00,CLR,,0.00,WeatherDisplay:10.37,2013-02-04 03:35:00,
2013-02-03 21:40:00,24.8,16.7,29.35,SSW,209,7.0,7.0,71,0.00,CLR,,0.00,WeatherDisplay:10.37,2013-02-04 03:40:00,
2013-02-03 21:50:00,24.6,16.6,29.35,SSW,200,7.0,7.0,71,0.00,CLR,,0.00,WeatherDisplay:10.37,2013-02-04 03:50:00,
2013-02-03 21:55:00,24.6,16.6,29.35,SSW,200,7.0,7.0,71,0.00,CLR,,0.00,WeatherDisplay:10.37,2013-02-04 03:55:00,
2013-02-03 22:00:00,24.6,16.6,29.35,SSW,195,7.0,7.0,71,0.00,CLR,,0.00,WeatherDisplay:10.37,2013-02-04 04:00:00,
2013-02-03 22:04:00,24.3,16.2,29.35,South,190,7.0,7.0,71,0.00,CLR,,0.00,WeatherDisplay:10.37,2013-02-04 04:04:00,
2013-02-03 22:10:00,24.3,16.2,29.35,South,190,6.0,7.0,71,0.00,CLR,,0.00,WeatherDisplay:10.37,2013-02-04 04:10:00,
2013-02-03 22:15:00,23.9,15.9,29.32,South,190,6.0,6.0,71,0.00,CLR,,0.00,WeatherDisplay:10.37,2013-02-04 04:15:00,
2013-02-03 22:20:00,23.7,15.7,29.32,SSE,161,6.0,6.0,71,0.00,CLR,,0.00,WeatherDisplay:10.37,2013-02-04 04:20:00,
2013-02-03 22:25:00,23.7,16.0,29.32,SE,144,6.0,6.0,72,0.00,CLR,,0.00,WeatherDisplay:10.37,2013-02-04 04:25:00,
2013-02-03 22:30:00,24.3,16.8,29.32,SE,133,6.0,6.0,73,0.00,CLR,,0.00,WeatherDisplay:10.37,2013-02-04 04:30:00,
2013-02-03 22:40:00,24.1,16.4,29.32,SE,135,6.0,6.0,72,0.00,CLR,,0.00,WeatherDisplay:10.37,2013-02-04 04:40:00,
2013-02-03 22:45:00,23.9,16.5,29.32,SE,133,6.0,6.0,73,0.00,CLR,,0.00,WeatherDisplay:10.37,2013-02-04 04:45:00,
2013-02-03 22:50:00,23.7,16.3,29.32,SE,130,6.0,6.0,73,0.00,CLR,,0.00,WeatherDisplay:10.37,2013-02-04 04:50:00,
2013-02-03 22:55:00,23.7,16.3,29.32,SE,130,6.0,6.0,73,0.00,CLR,,0.00,WeatherDisplay:10.37,2013-02-04 04:55:00,
2013-02-03 23:00:00,23.7,16.3,29.29,SE,127,6.0,6.0,73,0.00,CLR,,0.00,WeatherDisplay:10.37,2013-02-04 05:00:00,
2013-02-03 23:05:00,23.7,16.3,29.29,SE,125,5.0,6.0,73,0.00,CLR,,0.00,WeatherDisplay:10.37,2013-02-04 05:05:00,
2013-02-03 23:10:00,23.4,16.0,29.29,SE,127,5.0,5.0,73,0.00,CLR,,0.00,WeatherDisplay:10.37,2013-02-04 05:10:00,
2013-02-03 23:15:00,23.7,16.3,29.29,SE,130,5.0,5.0,73,0.00,CLR,,0.00,WeatherDisplay:10.37,2013-02-04 05:15:00,
2013-02-03 23:20:00,23.5,16.2,29.29,SE,127,5.0,5.0,73,0.00,CLR,,0.00,WeatherDisplay:10.37,2013-02-04 05:20:00,
2013-02-03 23:25:00,23.7,16.3,29.29,SE,125,3.0,5.0,73,0.00,CLR,,0.00,WeatherDisplay:10.37,2013-02-04 05:25:00,
2013-02-03 23:30:00,23.4,16.0,29.29,SE,138,3.0,4.0,73,0.00,CLR,,0.00,WeatherDisplay:10.37,2013-02-04 05:30:00,
2013-02-03 23:34:00,23.4,16.0,29.29,SSE,159,3.0,4.0,73,0.00,CLR,,0.00,WeatherDisplay:10.37,2013-02-04 05:34:00,
2013-02-03 23:40:00,23.5,16.2,29.29,SSE,160,5.0,5.0,73,0.00,CLR,,0.00,WeatherDisplay:10.37,2013-02-04 05:40:00,
2013-02-03 23:45:00,23.9,16.8,29.29,SSE,160,5.0,5.0,74,0.00,CLR,,0.00,WeatherDisplay:10.37,2013-02-04 05:45:00,
2013-02-03 23:50:00,24.3,17.2,29.29,SSE,156,5.0,5.0,74,0.00,CLR,,0.00,WeatherDisplay:10.37,2013-02-04 05:50:00,
2013-02-03 23:55:00,24.4,17.3,29.29,SSE,155,5.0,5.0,74,0.00,CLR,,0.00,WeatherDisplay:10.37,2013-02-04 05:55:00,